CZ-6A DEB, 54892

Orbit data source: Space-Track

CZ-6A DEB, 54892 is space debris in SSO originally from a launch on Fri, 11 Nov 2022 UTC launched from the Taiyaun Space Center, China (TSC). Debris objects in space refer to the collection of defunct objects orbiting the Earth. Examples of debris include non-operational satellites, rocket bodies, and fragments generated from explosions, collisions, or faulty payload assembly.

Loading next visibility...
Identifier
54892, 2022-151QD
Orbit
SSO
Country
Flag of CNCN / PRC
Related business
Manufacturer
SAST
Mission
Spacecraft
Bus & Motor
Unknown
Mass
Unknown
Launch date (UTC)
2022-11-11 (4 years ago)
Launch vehicle
Unknown
Launch site
Taiyaun Space Center, China (TSC)
Object type
Payload
Rocket body
Debris
Shape & HBR
Unknown shape, 0.1 m
Radar Cross Section
Medium (>0.1 m² and <1 m²)

Expand to show TLE details & history
Last TLE update: 2 days ago

TLE from 2 days ago
0 CZ-6A DEB
1 54892U 22151QD  26171.11768973  .00007652  00000-0  12269-2 0  9990
2 54892  98.6183 235.2934 0066551 279.8886  79.4810 14.70519108187915
Epoch: 2026-06-20T02:49Z
TLE epoch observation values (Epoch: 2026-06-20T02:49:28.392Z)
Latitude
-0.00006°
Longitude
-75.4118°
Altitude
654.147 km
Speed
7.535 km/s
True Right ascension
15h 41m 10s
True Declination
0° 00' 00"
Sunlit
Object was in full shadow at epoch
Visualization orbit readout
Latitude
Unknown
Longitude
Unknown
Altitude
Unknown
Speed
Unknown
Apparent Right ascension
Unknown
Apparent Declination
Unknown
Sunlit
N/A
Visualization observer readout
Local Sidereal Time
23:18:36
Azimuth
Unknown
Elevation
Unknown
Doppler factor
Unknown
Orbital elements
Apogee altitude
703.314 km
Perigee altitude
609.682 km
Semi-major axis
7,034.635 km
Eccentricity
0.00666
Inclination
98.6183°
RAAN
235.2934°
Arg. of periapsis
279.8886°
True anomaly
80.23192°
Mean anomaly
79.481°
Eccentric anomaly
79.85635°
Mean motion
3.67859 °/min
Orbital period
97.86 mins
BSTAR
0.0012269
Loading maneuver chart data...
Computing Atmospheric mass density...
Loading historical data...
Loading historical data...
Loading historical data...
Loading historical data...
Loading historical data...
Loading historical data...
Loading historical data...

Documentation

Showing up to 5 results
|